CW5574 Weather Reports


time (UTC)temp
F
wind
direction
speed
knots
gust
knots
rain 1hr
in
rain 24hr
in
rain mn
in
humidity
%
barometer
mb
20260504100154 43 4 0.0 1.7 0.00 0.00 0.00 78 1012.1
20260504090117 44 123 1.7 1.7 0.00 0.00 0.00 79 1011.8
20260504081552 45 43 0.0 2.6 0.00 0.00 0.00 76 1011.8
20260504081048 45 65 0.9 1.7 0.00 0.00 0.00 76 1011.9
20260504080545 45 153 1.7 1.7 0.00 0.00 0.00 76 1011.9
20260504050352 43 17 0.0 0.9 0.00 0.00 0.00 80 1012.5
20260504045849 43 13 0.0 0.9 0.00 0.00 0.00 80 1012.6
20260504045344 43 14 0.0 0.0 0.00 0.00 0.00 79 1012.8
20260504044841 43 14 0.0 0.0 0.00 0.00 0.00 79 1012.6
20260504044339 43 13 0.0 0.0 0.00 0.00 0.00 80 1012.9
20260504043836 43 14 0.0 0.0 0.00 0.00 0.00 80 1012.8
20260504043333 43 14 0.0 0.0 0.00 0.00 0.00 80 1012.8
20260504042830 43 4 0.0 0.0 0.00 0.00 0.00 80 1012.9
20260504042326 43 3 0.0 0.0 0.00 0.00 0.00 79 1013.0
20260504041823 43 3 0.0 0.9 0.00 0.00 0.00 79 1013.0
20260504041319 42 348 0.0 0.0 0.00 0.00 0.00 79 1012.8
20260504040815 42 346 1.7 2.6 0.00 0.00 0.00 81 1012.8
20260504040313 42 356 0.0 0.0 0.00 0.00 0.00 80 1012.8
20260504035809 42 356 0.0 0.0 0.00 0.00 0.00 77 1012.9
20260504035306 42 356 0.0 0.0 0.00 0.00 0.00 76 1012.7
20260504034803 41 356 0.0 0.0 0.00 0.00 0.00 78 1012.7
20260504034301 41 355 0.0 0.0 0.00 0.00 0.00 78 1012.8
20260504033758 41 355 0.0 0.0 0.00 0.00 0.00 80 1012.7
20260504033255 41 355 0.0 0.0 0.00 0.00 0.00 79 1012.5
20260504032752 41 355 0.0 0.0 0.00 0.00 0.00 79 1012.6
20260504032249 41 355 0.0 0.0 0.00 0.00 0.00 79 1012.7
20260504031746 41 355 0.0 0.0 0.00 0.00 0.00 78 1012.6
20260504031243 40 355 0.9 1.7 0.00 0.00 0.00 78 1012.4
20260504030739 39 355 0.0 0.0 0.00 0.00 0.00 75 1012.4
20260504030237 40 355 0.0 0.0 0.00 0.00 0.00 78 1012.5
20260504025733 39 355 0.0 0.0 0.00 0.00 0.00 79 1012.6
20260504025230 39 355 0.0 0.0 0.00 0.00 0.00 79 1012.4
20260504024727 39 355 0.0 0.0 0.00 0.00 0.00 78 1012.5
20260504024223 39 355 0.0 0.0 0.00 0.00 0.00 75 1012.3
20260504023720 39 355 0.0 0.0 0.00 0.00 0.00 75 1012.4
20260504023216 39 355 0.0 0.0 0.00 0.00 0.00 75 1012.4
20260504022712 39 355 0.0 0.0 0.00 0.00 0.00 74 1012.3
20260504022209 39 355 0.0 0.0 0.00 0.00 0.00 74 1012.5
20260504021706 40 355 0.0 0.0 0.00 0.00 0.00 73 1012.4
20260504021203 41 355 0.0 0.0 0.00 0.00 0.00 74 1012.7
20260504020700 40 355 0.0 0.0 0.00 0.00 0.00 72 1012.7
20260504020155 41 355 0.0 0.0 0.00 0.00 0.00 71 1012.7
20260504015652 41 355 0.0 0.0 0.00 0.00 0.00 69 1012.6
20260504015149 42 355 0.0 0.0 0.00 0.00 0.00 69 1012.6
20260504014644 42 355 0.0 0.0 0.00 0.00 0.00 67 1012.5
20260504014142 42 354 0.0 0.0 0.00 0.00 0.00 65 1012.7
20260504013640 43 355 0.0 0.0 0.00 0.00 0.00 68 1012.5
20260504013136 43 355 0.0 0.0 0.00 0.00 0.00 67 1012.6
20260504012633 44 355 0.0 0.0 0.00 0.00 0.00 65 1012.3
20260504012131 44 355 0.0 0.0 0.00 0.00 0.00 63 1012.2
20260504011628 44 355 0.0 0.0 0.00 0.00 0.00 61 1012.2
20260504011125 45 355 0.0 0.0 0.00 0.00 0.00 59 1012.3
20260504010620 45 355 0.0 0.0 0.00 0.00 0.00 57 1012.3
20260504010116 46 355 0.0 0.0 0.00 0.00 0.00 55 1012.0
20260504005614 46 354 0.0 0.0 0.00 0.00 0.00 54 1012.0
20260504005110 46 355 0.0 0.0 0.00 0.00 0.00 53 1012.1
20260504004609 47 354 0.0 0.0 0.00 0.00 0.00 52 1012.0
20260504004105 48 354 0.0 0.0 0.00 0.00 0.00 51 1011.9
20260504003601 48 353 0.0 0.0 0.00 0.00 0.00 49 1012.1
20260504003058 48 351 0.0 0.9 0.00 0.00 0.00 49 1011.9
20260504002555 49 358 0.0 0.0 0.00 0.00 0.00 49 1011.9
20260504002053 49 358 0.0 0.0 0.00 0.00 0.00 47 1011.8
20260504001550 50 358 0.0 0.0 0.00 0.00 0.00 46 1011.8
20260504001046 51 357 0.0 0.0 0.00 0.00 0.00 45 1011.7
20260504000543 51 11 0.0 0.9 0.00 0.00 0.00 45 1011.6
20260504000041 52 345 0.0 5.2 0.00 0.00 0.00 43 1011.5
20260503235539 52 4 0.0 0.9 0.00 0.00 0.00 44 1011.6
20260503235035 52 2 0.0 0.9 0.00 0.00 0.00 43 1011.5
20260503234533 53 350 0.9 1.7 0.00 0.00 0.00 41 1011.6
20260503234031 53 354 0.0 0.9 0.00 0.00 0.00 41 1011.4
20260503233527 53 324 1.7 2.6 0.00 0.00 0.00 40 1011.3
20260503233023 54 311 1.7 3.5 0.00 0.00 0.00 39 1011.3
20260503232520 54 315 5.2 11.3 0.00 0.00 0.00 38 1011.2
20260503232018 54 354 2.6 7.0 0.00 0.00 0.00 38 1011.0
20260503231516 54 2 0.9 2.6 0.00 0.00 0.00 37 1011.0
20260503231012 55 316 6.1 7.0 0.00 0.00 0.00 37 1011.1
20260503230509 55 293 2.6 7.0 0.00 0.00 0.00 36 1010.9
20260503230007 55 192 0.9 6.1 0.00 0.00 0.00 37 1010.9
20260503225503 55 6 0.9 8.7 0.00 0.00 0.00 35 1010.9
20260503224958 55 304 3.5 3.5 0.00 0.00 0.00 36 1011.0
20260503224455 55 223 3.5 6.1 0.00 0.00 0.00 36 1011.0
20260503223953 55 331 0.0 6.1 0.00 0.00 0.00 40 1010.8
20260503223451 55 344 0.9 7.8 0.00 0.00 0.00 36 1010.8
20260503222946 55 338 0.9 5.2 0.00 0.00 0.00 33 1010.7
20260503222445 57 336 1.7 2.6 0.00 0.00 0.00 32 1010.8
20260503221943 56 289 2.6 8.7 0.00 0.00 0.00 31 1010.7
20260503221441 57 224 3.5 6.1 0.00 0.00 0.00 32 1010.7
20260503220937 57 309 1.7 7.8 0.00 0.00 0.00 34 1010.6
20260503220434 57 329 0.9 5.2 0.00 0.00 0.00 31 1010.6
20260503215931 57 333 1.7 2.6 0.00 0.00 0.00 32 1010.7
20260503215428 57 354 1.7 9.6 0.00 0.00 0.00 30 1010.8
20260503214926 57 341 6.1 7.0 0.00 0.00 0.00 29 1010.7
20260503214423 56 343 9.6 13.9 0.00 0.00 0.00 29 1010.9
20260503213920 57 327 8.7 13.0 0.00 0.00 0.00 29 1010.9
20260503213418 57 6 0.0 7.0 0.00 0.00 0.00 33 1010.7
20260503212914 57 323 8.7 11.3 0.00 0.00 0.00 29 1010.6
20260503212412 57 262 5.2 9.6 0.00 0.00 0.00 30 1010.6
20260503211910 57 335 1.7 5.2 0.00 0.00 0.00 30 1010.5
20260503211406 57 359 9.6 14.8 0.00 0.00 0.00 29 1010.6
20260503210901 57 347 10.4 15.6 0.00 0.00 0.00 29 1010.5
20260503210359 57 1 5.2 9.6 0.00 0.00 0.00 31 1010.5
20260503205853 57 306 3.5 6.1 0.00 0.00 0.00 32 1010.6
20260503205350 57 281 5.2 7.0 0.00 0.00 0.00 30 1010.6
20260503204847 57 315 8.7 11.3 0.00 0.00 0.00 31 1010.6
20260503204344 57 215 4.3 11.3 0.00 0.00 0.00 31 1010.5
20260503203841 57 327 1.7 6.1 0.00 0.00 0.00 35 1010.7
20260503203339 57 280 5.2 8.7 0.00 0.00 0.00 33 1010.9
20260503202835 55 318 1.7 12.2 0.00 0.00 0.00 34 1010.9
20260503202334 55 315 3.5 13.0 0.00 0.00 0.00 37 1010.9
20260503201832 55 326 5.2 8.7 0.00 0.00 0.00 36 1010.9
20260503201328 55 266 3.5 5.2 0.00 0.00 0.00 38 1011.0
20260503200826 54 0 7.8 9.6 0.00 0.00 0.00 37 1011.1
20260503200321 53 300 3.5 12.2 0.00 0.00 0.00 37 1011.0
20260503195819 53 343 7.8 11.3 0.00 0.00 0.00 36 1010.9
20260503195315 54 358 3.5 8.7 0.00 0.00 0.00 38 1011.1
20260503194813 53 5 5.2 12.2 0.00 0.00 0.00 38 1011.2
20260503194309 54 331 5.2 11.3 0.00 0.00 0.00 37 1011.5
20260503193805 53 359 9.6 11.3 0.00 0.00 0.00 37 1011.5
20260503193301 52 327 5.2 8.7 0.00 0.00 0.00 41 1011.5
20260503192757 52 358 7.0 9.6 0.00 0.00 0.00 38 1011.6
20260503192252 52 340 3.5 13.0 0.00 0.00 0.00 40 1011.7
20260503191749 53 316 7.8 13.9 0.00 0.00 0.00 39 1011.7
20260503191246 53 325 9.6 14.8 0.00 0.00 0.00 39 1011.5
20260503190743 53 326 7.0 13.0 0.00 0.00 0.00 38 1012.1
20260503190240 53 11 1.7 7.8 0.00 0.00 0.00 41 1011.9
20260503185737 54 334 5.2 7.0 0.00 0.00 0.00 40 1011.8
20260503185232 54 4 0.0 6.1 0.00 0.00 0.00 40 1012.0
20260503184727 52 320 6.1 7.8 0.00 0.00 0.00 40 1012.1
20260503184224 51 299 5.2 11.3 0.00 0.00 0.00 39 1012.1
20260503183720 52 245 1.7 3.5 0.00 0.00 0.00 42 1012.3
20260503183217 51 338 7.0 11.3 0.00 0.00 0.00 41 1012.2
20260503182716 52 310 6.1 9.6 0.00 0.00 0.00 40 1012.3
20260503182214 52 313 7.8 11.3 0.00 0.00 0.00 42 1012.3
20260503181710 51 332 5.2 7.0 0.00 0.00 0.00 43 1012.3
20260503181207 51 304 6.1 13.9 0.00 0.00 0.00 42 1012.4
20260503180704 51 345 2.6 8.7 0.00 0.00 0.00 42 1012.4
20260503180202 50 297 2.6 12.2 0.00 0.00 0.00 46 1012.5
20260503175659 50 338 6.1 13.9 0.00 0.00 0.00 45 1012.5
20260503175156 50 311 6.1 12.2 0.00 0.00 0.00 43 1012.5
20260503174652 50 334 7.0 13.0 0.00 0.00 0.00 44 1012.5
20260503174150 49 319 4.3 8.7 0.00 0.00 0.00 44 1012.3
20260503173645 50 350 7.0 13.0 0.00 0.00 0.00 43 1012.4
20260503173141 50 329 1.7 14.8 0.00 0.00 0.00 45 1012.3
20260503172638 50 347 7.8 8.7 0.00 0.00 0.00 44 1012.5
20260503172136 51 300 7.0 12.2 0.00 0.00 0.00 43 1012.4
20260503171632 53 5 4.3 6.1 0.00 0.00 0.00 43 1012.5
20260503171129 50 254 5.2 8.7 0.00 0.00 0.00 44 1012.5
20260503170626 50 356 3.5 12.2 0.00 0.00 0.00 45 1012.7
20260503170123 50 11 1.7 8.7 0.00 0.00 0.00 43 1012.5
20260503150515 50 351 2.6 9.6 0.00 0.00 0.00 43 1012.5
20260503131407 45 21 7.0 7.8 0.00 0.00 0.00 64 1013.3
20260503130904 44 320 4.3 7.0 0.00 0.00 0.00 66 1013.3
20260503130402 44 323 5.2 6.1 0.00 0.00 0.00 66 1013.3
20260503110806 42 338 0.9 5.2 0.00 0.00 0.00 73 1012.6
20260503110303 42 331 4.3 6.1 0.00 0.00 0.00 72 1012.6